Location: Newark
(54.6833°N, 25.2833°E)
Time: 02:47:25
(UTC+00:00)

A-11 Canister half - Pass Details

Date: 22 January 2021
Orbit: 1525 x 1684 km, 47.3° (Epoch: 05 March)

Event Time Altitude Azimuth Distance (km) Brightness Sun altitude
Rises 17:17:37 0° 270° (W) 4,728 13.1 -22.6°
Reaches altitude 10° 17:20:44 10° 265° (W) 3,762 12.2 -23.0°
Maximum altitude 17:29:51 53° 193° (SSW) 1,916 9.5 -24.3°
Enters shadow 17:35:00 29° 133° (SE) 2,672 9.8 -25.1°
